Terminal Aerodrome Forecast
Issued by NWS Charleston, SC

Home | Current Version | Previous Version | Text Only | Print | Product List | Glossary On
Versions: 1 2 3 4 5 6 7 8 9 10 11 12 13 14 15 16 17 18 19 20
000
FTUS42 KCHS 032320
TAFSAV
TAF
KSAV 032320Z 0400/0424 21006KT P6SM FEW080 SCT250
     FM041500 27009KT P6SM SCT040
     FM042200 20009KT P6SM SCT050 BKN250=

USA.gov is the U.S. government's official web portal to all federal, state and local government web resources and services.